Weather History for Monticello, IA

Change the Weather History Date:

Wednesday, March 26, 2014

  Actual Average Record
Temperature  
Mean Temperature 28 °F -  
Max Temperature 42 °F 50 °F 78 °F (2007)
Min Temperature 14 °F 31 °F 12 °F (2001)
Degree Days  
Heating Degree Days 37    
Moisture  
Dew Point 16 °F    
Average Humidity 61    
Maximum Humidity 93    
Minimum Humidity 39    
Precipitation  
Precipitation 0.00 in - - ()
Sea Level Pressure  
Sea Level Pressure 30.08 in    
Wind  
Wind Speed 9 mph (SSE)    
Max Wind Speed 28 mph    
Max Gust Speed 34 mph    
Visibility 10 miles    
Events      
Averages and records for this station are not official NWS values.
T = Trace of Precipitation, MM = Missing Value Source: NWS Daily Summary

Daily Weather History Graph

Daily Weather History Graph

Search for Another Location

Airport:

Trip Planner

Search our weather history database for the weather conditions in past years. The results will help you decide how hot, cold, wet, or windy it might be!

Date:

Astronomy

Mar. 26, 2014 Rise Set
Actual Time 6:57 AM CDT 7:23 PM CDT
Civil Twilight 6:29 AM CDT 7:51 PM CDT
Nautical Twilight 5:56 AM CDT 8:24 PM CDT
Astronomical Twilight 5:22 AM CDT 8:59 PM CDT
Moon 4:10 AM CDT 2:58 PM CDT
Length of Visible Light 13h 22m
Length of Day
12h 26m
Waning Crescent, 21% of the Moon is Illuminated
Mar 26
Waning Crescent
Mar 30
New
Apr 7
First Quarter
Apr 15
Full
Apr 22
Last Quarter

Hourly Weather History & Observations

Time (CDT) Temp. Windchill Dew Point Humidity Pressure Visibility Wind Dir Wind Speed Gust Speed Precip Events Conditions
12:15 AM 15.8 °F - 12.2 °F 86% 30.24 in 10.0 mi Calm Calm - N/A   Clear
12:35 AM 15.8 °F - 10.4 °F 79% 30.23 in 10.0 mi Calm Calm - N/A   Clear
12:55 AM 14.0 °F - 10.4 °F 86% 30.24 in 10.0 mi Calm Calm - N/A   Clear
1:15 AM 14.0 °F - 12.2 °F 93% 30.24 in 10.0 mi Calm Calm - N/A   Clear
1:35 AM 14.0 °F - 10.4 °F 86% 30.24 in 10.0 mi Calm Calm - N/A   Clear
1:55 AM 14.0 °F - 10.4 °F 86% 30.24 in 10.0 mi Calm Calm - N/A   Clear
2:15 AM 14.0 °F - 10.4 °F 86% 30.24 in 10.0 mi Calm Calm - N/A   Clear
2:35 AM 14.0 °F - 10.4 °F 86% 30.24 in 10.0 mi Calm Calm - N/A   Clear
2:55 AM 14.0 °F - 10.4 °F 86% 30.24 in 10.0 mi Calm Calm - N/A   Clear
3:15 AM 14.0 °F - 10.4 °F 86% 30.24 in 10.0 mi Calm Calm - N/A   Clear
3:35 AM 14.0 °F - 10.4 °F 86% 30.24 in 10.0 mi Calm Calm - N/A   Clear
3:55 AM 14.0 °F - 10.4 °F 86% 30.24 in 10.0 mi Calm Calm - N/A   Clear
4:10 AM 14.0 °F - 8.6 °F 79% 30.23 in 10.0 mi Calm Calm - N/A   Clear
4:35 AM 14.0 °F - 10.4 °F 86% 30.24 in 10.0 mi Calm Calm - N/A   Clear
4:55 AM 14.0 °F 8.2 °F 8.6 °F 79% 30.23 in 10.0 mi East 3.5 mph - N/A   Clear
5:15 AM 14.0 °F - 8.6 °F 79% 30.23 in 10.0 mi Calm Calm - N/A   Clear
5:35 AM 14.0 °F 8.2 °F 10.4 °F 86% 30.23 in 10.0 mi SE 3.5 mph - N/A   Clear
5:55 AM 14.0 °F 5.1 °F 10.4 °F 86% 30.23 in 10.0 mi SE 5.8 mph - N/A   Clear
6:15 AM 15.8 °F 7.2 °F 10.4 °F 79% 30.23 in 10.0 mi SE 5.8 mph - N/A   Clear
6:35 AM 15.8 °F 7.2 °F 8.6 °F 73% 30.23 in 10.0 mi SE 5.8 mph - N/A   Clear
6:55 AM 14.0 °F 5.1 °F 8.6 °F 79% 30.23 in 10.0 mi SE 5.8 mph - N/A   Mostly Cloudy
7:15 AM 15.8 °F 7.2 °F 10.4 °F 79% 30.24 in 10.0 mi SE 5.8 mph - N/A   Overcast
7:35 AM 15.8 °F 6.1 °F 10.4 °F 79% 30.24 in 10.0 mi SSE 6.9 mph - N/A   Overcast
7:55 AM 19.4 °F 8.6 °F 12.2 °F 74% 30.25 in 10.0 mi SSE 9.2 mph - N/A   Overcast
8:15 AM 21.2 °F 9.5 °F 14.0 °F 74% 30.25 in 10.0 mi South 11.5 mph - N/A   Overcast
8:35 AM 23.0 °F 10.1 °F 12.2 °F 63% 30.25 in 10.0 mi South 15.0 mph - N/A   Mostly Cloudy
8:55 AM 23.0 °F 12.4 °F 14.0 °F 68% 30.23 in 10.0 mi SSE 10.4 mph 17.3 mph N/A   Clear
9:15 AM 24.8 °F 11.9 °F 14.0 °F 64% 30.22 in 10.0 mi SSE 16.1 mph - N/A   Partly Cloudy
9:35 AM 26.6 °F 14.3 °F 14.0 °F 59% 30.21 in 10.0 mi SE 16.1 mph - N/A   Mostly Cloudy
9:55 AM 26.6 °F 14.3 °F 14.0 °F 59% 30.21 in 10.0 mi SSE 16.1 mph 21.9 mph N/A   Partly Cloudy
10:15 AM 28.4 °F 15.8 °F 15.8 °F 59% 30.20 in 10.0 mi SSE 18.4 mph 24.2 mph N/A   Clear
10:35 AM 30.2 °F 19.3 °F 15.8 °F 55% 30.19 in 10.0 mi SSE 15.0 mph 21.9 mph N/A   Clear
10:55 AM 30.2 °F 18.9 °F 17.6 °F 60% 30.18 in 10.0 mi South 16.1 mph 23.0 mph N/A   Clear
11:15 AM 32.0 °F 20.8 °F 15.8 °F 51% 30.18 in 10.0 mi SSE 17.3 mph 24.2 mph N/A   Clear
11:35 AM 32.0 °F 20.5 °F 17.6 °F 55% 30.17 in 10.0 mi SSE 18.4 mph 24.2 mph N/A   Clear
11:55 AM 33.8 °F 23.2 °F 17.6 °F 52% 30.16 in 10.0 mi SSE 17.3 mph 26.5 mph N/A   Clear
12:15 PM 35.6 °F 24.8 °F 17.6 °F 48% 30.14 in 10.0 mi SSE 19.6 mph 26.5 mph N/A   Partly Cloudy
12:35 PM 33.8 °F 21.9 °F 17.6 °F 52% 30.13 in 10.0 mi SSE 21.9 mph 27.6 mph N/A   Mostly Cloudy
12:55 PM 35.6 °F 24.2 °F 17.6 °F 48% 30.12 in 10.0 mi SSE 21.9 mph - N/A   Mostly Cloudy
1:15 PM 37.4 °F 26.4 °F 17.6 °F 45% 30.11 in 10.0 mi SSE 23.0 mph - N/A   Scattered Clouds
1:35 PM 39.2 °F 28.7 °F 17.6 °F 42% 30.09 in 10.0 mi SSE 23.0 mph - N/A   Clear
1:55 PM 39.2 °F 28.3 °F 17.6 °F 42% 30.07 in 10.0 mi SSE 25.3 mph 32.2 mph N/A   Scattered Clouds
2:15 PM 39.2 °F 29.6 °F 19.4 °F 45% 30.05 in 10.0 mi SSE 19.6 mph 32.2 mph N/A   Scattered Clouds
2:35 PM 41.0 °F 31.4 °F 19.4 °F 42% 30.03 in 10.0 mi SSE 21.9 mph 31.1 mph N/A   Clear
2:55 PM 41.0 °F 31.9 °F 21.2 °F 45% 30.01 in 10.0 mi SSE 19.6 mph 31.1 mph N/A   Mostly Cloudy
3:15 PM 42.8 °F 32.7 °F 19.4 °F 39% 29.99 in 10.0 mi SSE 27.6 mph - N/A   Mostly Cloudy
3:35 PM 41.0 °F 30.5 °F 17.6 °F 39% 29.98 in 10.0 mi SSE 26.5 mph 34.5 mph N/A   Partly Cloudy
3:55 PM 42.8 °F 32.9 °F 19.4 °F 39% 29.96 in 10.0 mi SSE 26.5 mph 33.4 mph N/A   Scattered Clouds
4:15 PM 41.0 °F 30.7 °F 19.4 °F 42% 29.95 in 10.0 mi SE 25.3 mph 34.5 mph N/A   Mostly Cloudy
4:35 PM 41.0 °F 31.4 °F 19.4 °F 42% 29.94 in 10.0 mi SSE 21.9 mph 34.5 mph N/A   Mostly Cloudy
4:55 PM 41.0 °F 30.2 °F 19.4 °F 42% 29.93 in 10.0 mi SSE 27.6 mph 34.5 mph N/A   Overcast
5:15 PM 41.0 °F 30.2 °F 19.4 °F 42% 29.92 in 10.0 mi SSE 27.6 mph - N/A   Overcast
5:35 PM 41.0 °F 31.1 °F 19.4 °F 42% 29.92 in 10.0 mi SSE 23.0 mph 32.2 mph N/A   Overcast
5:55 PM 41.0 °F 30.7 °F 19.4 °F 42% 29.92 in 10.0 mi SSE 25.3 mph 33.4 mph N/A   Overcast
6:15 PM 39.2 °F 28.7 °F 19.4 °F 45% 29.91 in 10.0 mi SSE 23.0 mph 28.8 mph N/A   Overcast
6:35 PM 39.2 °F 29.6 °F 19.4 °F 45% 29.90 in 10.0 mi SSE 19.6 mph - N/A   Overcast
6:55 PM 39.2 °F 29.0 °F 21.2 °F 49% 29.90 in 10.0 mi SSE 21.9 mph - N/A   Overcast
7:15 PM 39.2 °F 29.8 °F 21.2 °F 49% 29.90 in 10.0 mi SSE 18.4 mph - N/A   Overcast
7:35 PM 39.2 °F 30.2 °F 21.2 °F 49% 29.89 in 10.0 mi SSE 17.3 mph - N/A   Overcast
7:55 PM 39.2 °F 30.5 °F 21.2 °F 49% 29.89 in 10.0 mi SSE 16.1 mph - N/A   Overcast
8:15 PM 39.2 °F 31.2 °F 21.2 °F 49% 29.88 in 10.0 mi SSE 13.8 mph 24.2 mph N/A   Overcast
8:35 PM 39.2 °F 30.5 °F 21.2 °F 49% 29.88 in 10.0 mi SSE 16.1 mph 23.0 mph N/A   Overcast
8:55 PM 39.2 °F 29.8 °F 21.2 °F 49% 29.87 in 10.0 mi SSE 18.4 mph 26.5 mph N/A   Overcast
9:15 PM 39.2 °F 30.2 °F 23.0 °F 52% 29.87 in 10.0 mi SSE 17.3 mph 25.3 mph N/A   Overcast
9:35 PM 39.2 °F 29.6 °F 23.0 °F 52% 29.86 in 10.0 mi SSE 19.6 mph - N/A   Overcast
9:55 PM 39.2 °F 28.7 °F 23.0 °F 52% 29.85 in 10.0 mi SSE 23.0 mph - N/A   Overcast
10:15 PM 41.0 °F 31.1 °F 23.0 °F 49% 29.85 in 10.0 mi SSE 23.0 mph 31.1 mph N/A   Mostly Cloudy
10:35 PM 41.0 °F 31.1 °F 23.0 °F 49% 29.84 in 10.0 mi SSE 23.0 mph 29.9 mph N/A   Overcast
10:50 PM 41.0 °F 31.4 °F 23.0 °F 49% 29.84 in 10.0 mi SSE 21.9 mph 28.8 mph N/A   Overcast
11:15 PM 41.0 °F 31.1 °F 23.0 °F 49% 29.83 in 10.0 mi SSE 23.0 mph - N/A   Overcast
11:35 PM 41.0 °F 32.2 °F 23.0 °F 49% 29.83 in 10.0 mi SSE 18.4 mph 26.5 mph N/A   Overcast
11:55 PM 41.0 °F 32.2 °F 23.0 °F 49% 29.83 in 10.0 mi SSE 18.4 mph 25.3 mph N/A   Overcast